User: anonymous   Login
Location: Molveno
(46.1500°N, 10.9667°E)
Time: 08:57:51
(UTC+00:00)
Language:

Meteor 1-11 - Orbit

View from above orbital plane
View from above orbital plane
View from above satellite
View from above satellite

Ground track
Ground track

The orbit data is extracted from the following two-line orbital elements,

1  5917U 72022A   20265.86145484 -.00000054 +00000-0 -38618-4 0  9991
2  5917 081.2247 164.6758 0032693 117.7397 242.7095 14.08699005489612
Epoch (UTC): 21 September 2020 20:40:29
Eccentricity: 0.0032693
inclination: 81.2247°
perigee height: 840 km
apogee height: 887 km
right ascension of ascending node: 164.6758°
argument of perigee: 117.7397°
revolutions per day: 14.08699005
mean anomaly at epoch: 242.7095°
orbit number at epoch: 48961

The dashed part of the orbit path shows where the satellite is in the earth's shadow,  

DLR